| time (UTC) | temp F | wind direction | speed knots | gust knots | rain 1hr in | rain 24hr in | rain mn in | humidity % | barometer mb |
| 20260505041517 | 62 | 180 | 0.9 | 3.5 | 0.00 | 0.00 | 0.00 | 86 | 1010.4 |
| 20260505040517 | 63 | 158 | 1.7 | 4.3 | 0.00 | 0.00 | 0.00 | 86 | 1010.3 |
| 20260505035518 | 63 | 158 | 1.7 | 4.3 | 0.00 | 0.00 | 0.00 | 86 | 1010.2 |
| 20260505034616 | 63 | 158 | 0.9 | 4.3 | 0.00 | 0.00 | 0.00 | 85 | 1010.2 |
| 20260505033516 | 63 | 180 | 2.6 | 4.3 | 0.00 | 0.00 | 0.00 | 84 | 1010.2 |
| 20260505032516 | 64 | 225 | 2.6 | 5.2 | 0.00 | 0.00 | 0.00 | 83 | 1010.1 |
| 20260505031516 | 64 | 180 | 1.7 | 4.3 | 0.00 | 0.00 | 0.00 | 82 | 1010.3 |
| 20260505030516 | 64 | 180 | 2.6 | 5.2 | 0.00 | 0.00 | 0.00 | 81 | 1010.3 |
| 20260505025516 | 64 | 203 | 0.9 | 3.5 | 0.00 | 0.00 | 0.00 | 80 | 1010.3 |
| 20260505024516 | 65 | 158 | 1.7 | 4.3 | 0.00 | 0.00 | 0.00 | 79 | 1010.2 |
| 20260505023515 | 65 | 158 | 0.9 | 1.7 | 0.00 | 0.00 | 0.00 | 77 | 1010.3 |
| 20260505022536 | 65 | 180 | 2.6 | 4.3 | 0.00 | 0.00 | 0.00 | 75 | 1010.2 |
| 20260505021516 | 66 | 203 | 0.9 | 4.3 | 0.00 | 0.00 | 0.00 | 72 | 1010.3 |
| 20260505020516 | 66 | 203 | 3.5 | 7.0 | 0.00 | 0.00 | 0.00 | 71 | 1010.2 |
| 20260505015515 | 65 | 225 | 1.7 | 7.0 | 0.00 | 0.00 | 0.00 | 72 | 1010.1 |
| 20260505014516 | 65 | 180 | 0.9 | 1.7 | 0.00 | 0.00 | 0.00 | 72 | 1010.3 |
| 20260505013516 | 66 | 225 | 0.9 | 1.7 | 0.00 | 0.00 | 0.00 | 71 | 1010.2 |
| 20260505012515 | 66 | 180 | 1.7 | 4.3 | 0.00 | 0.00 | 0.00 | 71 | 1010.1 |
| 20260505011516 | 66 | 0.0 | 1.7 | 0.00 | 0.00 | 0.00 | 69 | 1009.9 | |
| 20260505010515 | 67 | 203 | 0.9 | 2.6 | 0.00 | 0.00 | 0.00 | 67 | 1009.8 |
| 20260505005518 | 66 | 203 | 0.9 | 2.6 | 0.00 | 0.00 | 0.00 | 67 | 1009.6 |
| 20260505004515 | 66 | 180 | 0.9 | 1.7 | 0.00 | 0.00 | 0.00 | 68 | 1009.7 |
| 20260505003516 | 66 | 203 | 0.9 | 3.5 | 0.00 | 0.00 | 0.00 | 70 | 1009.7 |
| 20260505002515 | 66 | 0.0 | 0.9 | 0.00 | 0.00 | 0.00 | 72 | 1009.6 | |
| 20260505001515 | 66 | 0.0 | 1.7 | 0.00 | 0.00 | 0.00 | 71 | 1009.6 | |
| 20260505000555 | 67 | 180 | 1.7 | 2.6 | 0.00 | 0.00 | 0.00 | 68 | 1009.6 |
| 20260504235515 | 69 | 203 | 2.6 | 6.1 | 0.00 | 0.00 | 0.00 | 63 | 1009.7 |
| 20260504234515 | 69 | 0.0 | 0.9 | 0.00 | 0.00 | 0.00 | 58 | 1009.6 | |
| 20260504233515 | 70 | 158 | 1.7 | 3.5 | 0.00 | 0.00 | 0.00 | 54 | 1009.5 |
| 20260504232515 | 71 | 203 | 2.6 | 6.1 | 0.00 | 0.00 | 0.00 | 52 | 1009.4 |
| 20260504231515 | 71 | 180 | 2.6 | 5.2 | 0.00 | 0.00 | 0.00 | 52 | 1009.5 |
| 20260504230515 | 71 | 113 | 3.5 | 7.0 | 0.00 | 0.00 | 0.00 | 52 | 1009.4 |
| 20260504225515 | 71 | 135 | 2.6 | 5.2 | 0.00 | 0.00 | 0.00 | 52 | 1009.4 |
| 20260504224535 | 71 | 203 | 2.6 | 5.2 | 0.00 | 0.00 | 0.00 | 52 | 1009.5 |
| 20260504223515 | 72 | 180 | 4.3 | 11.3 | 0.00 | 0.00 | 0.00 | 52 | 1009.5 |
| 20260504222515 | 72 | 180 | 0.9 | 2.6 | 0.00 | 0.00 | 0.00 | 52 | 1009.5 |
| 20260504221515 | 73 | 135 | 4.3 | 7.8 | 0.00 | 0.00 | 0.00 | 48 | 1009.4 |
| 20260504220515 | 73 | 180 | 1.7 | 5.2 | 0.00 | 0.00 | 0.00 | 48 | 1009.4 |
| 20260504215515 | 73 | 225 | 1.7 | 3.5 | 0.00 | 0.00 | 0.00 | 48 | 1009.5 |
| 20260504214535 | 73 | 180 | 1.7 | 4.3 | 0.00 | 0.00 | 0.00 | 47 | 1009.5 |
| 20260504213535 | 73 | 135 | 2.6 | 4.3 | 0.00 | 0.00 | 0.00 | 48 | 1009.5 |
| 20260504212515 | 73 | 158 | 2.6 | 6.1 | 0.00 | 0.00 | 0.00 | 47 | 1009.6 |
| 20260504211515 | 73 | 113 | 2.6 | 6.1 | 0.00 | 0.00 | 0.00 | 48 | 1009.6 |
| 20260504210515 | 73 | 135 | 2.6 | 5.2 | 0.00 | 0.00 | 0.00 | 47 | 1009.6 |
| 20260504205515 | 73 | 158 | 6.1 | 7.8 | 0.00 | 0.00 | 0.00 | 45 | 1009.8 |
| 20260504204535 | 72 | 158 | 3.5 | 7.0 | 0.00 | 0.00 | 0.00 | 45 | 1009.7 |
| 20260504203515 | 73 | 135 | 6.1 | 9.6 | 0.00 | 0.00 | 0.00 | 45 | 1009.8 |
| 20260504202515 | 72 | 158 | 3.5 | 7.0 | 0.00 | 0.00 | 0.00 | 44 | 1009.9 |
| 20260504201515 | 72 | 158 | 0.9 | 2.6 | 0.00 | 0.00 | 0.00 | 45 | 1010.0 |
| 20260504200515 | 73 | 135 | 6.1 | 10.4 | 0.00 | 0.00 | 0.00 | 43 | 1010.1 |
| 20260504195515 | 73 | 45 | 2.6 | 7.0 | 0.00 | 0.00 | 0.00 | 42 | 1010.4 |
| 20260504194536 | 73 | 135 | 1.7 | 4.3 | 0.00 | 0.00 | 0.00 | 41 | 1010.4 |
| 20260504193515 | 72 | 135 | 3.5 | 5.2 | 0.00 | 0.00 | 0.00 | 42 | 1010.6 |
| 20260504192515 | 72 | 135 | 6.1 | 13.0 | 0.00 | 0.00 | 0.00 | 42 | 1010.7 |
| 20260504191517 | 71 | 180 | 3.5 | 6.1 | 0.00 | 0.00 | 0.00 | 44 | 1010.9 |
| 20260504190517 | 71 | 135 | 4.3 | 7.0 | 0.00 | 0.00 | 0.00 | 42 | 1011.1 |
| 20260504185517 | 71 | 135 | 2.6 | 6.1 | 0.00 | 0.00 | 0.00 | 44 | 1011.2 |
| 20260504184517 | 71 | 135 | 6.1 | 9.6 | 0.00 | 0.00 | 0.00 | 43 | 1011.3 |
| 20260504183537 | 71 | 135 | 7.8 | 9.6 | 0.00 | 0.00 | 0.00 | 43 | 1011.5 |
| 20260504182517 | 71 | 180 | 3.5 | 7.8 | 0.00 | 0.00 | 0.00 | 42 | 1011.6 |
| 20260504181537 | 71 | 158 | 1.7 | 4.3 | 0.00 | 0.00 | 0.00 | 43 | 1011.7 |
| 20260504180517 | 70 | 158 | 6.1 | 10.4 | 0.00 | 0.00 | 0.00 | 42 | 1011.8 |
| 20260504175517 | 70 | 158 | 3.5 | 14.8 | 0.00 | 0.00 | 0.00 | 41 | 1011.9 |
| 20260504174557 | 71 | 135 | 5.2 | 8.7 | 0.00 | 0.00 | 0.00 | 44 | 1012.1 |
| 20260504173517 | 70 | 158 | 2.6 | 7.8 | 0.00 | 0.00 | 0.00 | 44 | 1012.2 |
| 20260504172516 | 70 | 158 | 5.2 | 7.0 | 0.00 | 0.00 | 0.00 | 43 | 1012.3 |
| 20260504171517 | 69 | 158 | 4.3 | 7.0 | 0.00 | 0.00 | 0.00 | 45 | 1012.4 |
| 20260504170516 | 69 | 158 | 2.6 | 5.2 | 0.00 | 0.00 | 0.00 | 44 | 1012.6 |
| 20260504150517 | 66 | 158 | 5.2 | 7.8 | 0.00 | 0.00 | 0.00 | 53 | 1013.7 |
| 20260504140516 | 63 | 248 | 3.5 | 7.8 | 0.00 | 0.00 | 0.00 | 51 | 1014.0 |
| 20260504130516 | 61 | 203 | 0.9 | 1.7 | 0.00 | 0.00 | 0.00 | 55 | 1014.1 |
| 20260504110516 | 56 | 225 | 0.9 | 0.9 | 0.00 | 0.00 | 0.00 | 64 | 1014.7 |
| 20260504100516 | 56 | 203 | 2.6 | 4.3 | 0.00 | 0.00 | 0.00 | 64 | 1014.7 |
| 20260504081515 | 55 | 0.0 | 0.0 | 0.00 | 0.00 | 0.00 | 67 | 1015.0 | |
| 20260504080516 | 55 | 0.0 | 0.0 | 0.00 | 0.00 | 0.00 | 66 | 1015.0 | |
| 20260504050515 | 52 | 0.0 | 1.7 | 0.00 | 0.00 | 0.00 | 62 | 1015.2 | |
| 20260504045515 | 52 | 0.0 | 0.0 | 0.00 | 0.00 | 0.00 | 62 | 1015.2 | |
| 20260504044518 | 52 | 0.0 | 1.7 | 0.00 | 0.00 | 0.00 | 61 | 1015.3 | |
| 20260504043515 | 52 | 203 | 0.9 | 1.7 | 0.00 | 0.00 | 0.00 | 60 | 1015.2 |
| 20260504042515 | 51 | 225 | 0.9 | 2.6 | 0.00 | 0.00 | 0.00 | 62 | 1015.3 |